TimeMST,TemperatureF,Dew PointF,Humidity,Sea Level PressureIn,VisibilityMPH,Wind Direction,Wind SpeedMPH,Gust SpeedMPH,PrecipitationIn,Events,Conditions,WindDirDegrees,DateUTC
12:53 AM,30.9,25.0,79,30.08,10.0,SE,5.8,-,N/A,,Clear,130,2013-11-19 07:53:00
1:53 AM,30.9,25.0,79,30.05,10.0,East,3.5,-,N/A,,Clear,80,2013-11-19 08:53:00
2:53 AM,32.0,26.1,79,30.03,10.0,SE,5.8,-,N/A,,Clear,140,2013-11-19 09:53:00
3:53 AM,34.0,26.1,73,30.02,10.0,East,11.5,-,N/A,,Clear,100,2013-11-19 10:53:00
4:53 AM,35.1,26.1,70,30.01,10.0,ESE,10.4,-,N/A,,Clear,110,2013-11-19 11:53:00
5:53 AM,36.0,25.0,64,30.00,10.0,ESE,9.2,-,N/A,,Clear,120,2013-11-19 12:53:00
6:53 AM,37.0,25.0,62,30.02,10.0,SE,9.2,-,N/A,,Scattered Clouds,130,2013-11-19 13:53:00
7:53 AM,35.1,26.1,70,30.04,10.0,ENE,3.5,-,N/A,,Overcast,70,2013-11-19 14:53:00
8:53 AM,37.0,27.0,67,30.03,10.0,SSE,3.5,-,N/A,,Mostly Cloudy,150,2013-11-19 15:53:00
9:53 AM,39.9,28.0,63,30.01,10.0,ESE,4.6,-,N/A,,Mostly Cloudy,120,2013-11-19 16:53:00
10:53 AM,39.9,30.9,70,30.00,10.0,West,4.6,-,N/A,,Overcast,280,2013-11-19 17:53:00
11:53 AM,42.1,30.0,62,29.96,10.0,West,4.6,-,N/A,,Scattered Clouds,270,2013-11-19 18:53:00
12:53 PM,44.1,28.0,53,29.93,10.0,Calm,Calm,-,N/A,,Partly Cloudy,0,2013-11-19 19:53:00
1:53 PM,46.0,26.1,46,29.91,10.0,Calm,Calm,-,N/A,,Mostly Cloudy,0,2013-11-19 20:53:00
2:53 PM,46.0,30.0,54,29.89,10.0,Calm,Calm,-,N/A,,Scattered Clouds,0,2013-11-19 21:53:00
3:53 PM,44.1,28.9,55,29.89,10.0,SW,3.5,-,N/A,,Overcast,220,2013-11-19 22:53:00
4:53 PM,43.0,28.9,58,29.91,10.0,NNE,6.9,-,N/A,,Overcast,20,2013-11-19 23:53:00
5:53 PM,42.1,33.1,70,29.92,10.0,East,4.6,-,0.00,Rain,Light Rain,90,2013-11-20 00:53:00
6:53 PM,42.1,32.0,67,29.91,10.0,SW,3.5,-,0.00,,Overcast,220,2013-11-20 01:53:00
7:53 PM,41.0,33.1,73,29.93,10.0,East,3.5,-,N/A,,Overcast,80,2013-11-20 02:53:00
8:53 PM,41.0,30.9,67,29.92,10.0,NE,5.8,-,N/A,,Overcast,50,2013-11-20 03:53:00
9:53 PM,42.1,33.1,70,29.91,10.0,Calm,Calm,-,N/A,,Overcast,0,2013-11-20 04:53:00
10:53 PM,39.9,34.0,79,29.92,10.0,ESE,5.8,-,0.00,Rain,Light Rain,110,2013-11-20 05:53:00
11:53 PM,39.0,34.0,82,29.92,10.0,NW,3.5,-,0.00,,Overcast,320,2013-11-20 06:53:00